EW8682 Weather Reports


Display with metric or nautical units.
time (UTC)temp
F
wind
direction
speed
MPH
gust
MPH
rain 1hr
in
rain 24hr
in
rain mn
in
humidity
%
barometer
mb
20260509161506 61 172 1.0 4.0 0.00 0.00 0.00 82 1005.7
20260509160002 59 161 1.0 3.0 0.00 0.00 0.00 86 1005.8
20260509154601 58 143 1.0 3.0 0.00 0.00 0.00 89 1005.7
20260509153057 57 138 0.0 3.0 0.00 0.00 0.00 91 1005.8
20260509151558 56 137 1.0 3.0 0.00 0.00 0.00 93 1005.8
20260509150057 55 107 0.0 2.0 0.00 0.00 0.00 94 1005.8
20260509144556 54 108 0.0 0.0 0.00 0.00 0.00 94 1005.6
20260509143059 54 108 0.0 3.0 0.00 0.00 0.00 94 1005.5
20260509141558 54 108 0.0 2.0 0.00 0.00 0.00 94 1005.6
20260509140058 53 108 0.0 2.0 0.00 0.00 0.00 93 1005.6
20260509134544 53 109 0.0 2.0 0.00 0.00 0.00 93 1005.6
20260509133042 54 109 0.0 2.0 0.00 0.00 0.00 93 1005.5
20260509131542 53 109 0.0 3.0 0.00 0.00 0.00 93 1005.4
20260509130041 54 109 0.0 2.0 0.00 0.00 0.00 93 1005.3
20260509124540 54 109 0.0 2.0 0.00 0.00 0.00 93 1005.1
20260509123047 54 109 0.0 1.0 0.00 0.00 0.00 93 1005.1
20260509121539 54 109 0.0 2.0 0.00 0.00 0.00 92 1005.0
20260509120040 54 109 0.0 0.0 0.00 0.00 0.00 93 1005.0
20260509114536 54 109 0.0 1.0 0.00 0.00 0.00 93 1005.0
20260509113034 53 109 0.0 2.0 0.00 0.00 0.00 92 1005.1
20260509111534 52 109 0.0 2.0 0.00 0.00 0.00 92 1005.1
20260509110033 51 109 0.0 0.0 0.00 0.00 0.00 91 1005.2
20260509104533 52 109 0.0 1.0 0.00 0.00 0.00 91 1005.2
20260509103029 52 109 0.0 2.0 0.00 0.00 0.00 91 1005.1
20260509101527 53 109 0.0 1.0 0.00 0.00 0.00 91 1005.2
20260509100025 53 109 0.0 2.0 0.00 0.00 0.00 91 1005.2
20260509094523 53 110 1.0 3.0 0.00 0.00 0.00 91 1005.3
20260509093022 53 110 1.0 2.0 0.00 0.00 0.00 90 1005.4
20260509091519 53 111 0.0 2.0 0.00 0.00 0.00 90 1005.4
20260509090016 54 111 0.0 2.0 0.00 0.00 0.00 90 1005.5
20260509084521 54 111 0.0 2.0 0.00 0.00 0.00 89 1005.6
20260509083016 54 111 0.0 2.0 0.00 0.00 0.00 89 1005.7
20260509081512 55 112 0.0 2.0 0.00 0.00 0.00 89 1005.7
20260509080012 55 112 1.0 3.0 0.00 0.00 0.00 88 1005.7
20260509074507 55 112 0.0 4.0 0.00 0.00 0.00 88 1005.8
20260509073006 56 140 1.0 2.0 0.00 0.00 0.00 88 1005.9
20260509071504 56 140 0.0 2.0 0.00 0.00 0.00 88 1005.9
20260509070100 57 140 1.0 2.0 0.00 0.00 0.00 87 1006.1
20260509064606 57 140 1.0 3.0 0.00 0.00 0.00 86 1006.2
20260509063100 57 141 1.0 3.0 0.00 0.00 0.00 86 1006.2
20260509061603 58 143 1.0 2.0 0.00 0.00 0.00 86 1006.2
20260509054610 59 143 0.0 1.0 0.00 0.00 0.00 84 1006.3
20260509053103 59 143 0.0 1.0 0.00 0.00 0.00 84 1006.2
20260509051604 60 143 1.0 2.0 0.00 0.00 0.00 83 1006.3
20260509050057 60 144 1.0 3.0 0.00 0.00 0.00 83 1006.2
20260509044555 61 148 1.0 2.0 0.00 0.00 0.00 82 1006.1
20260509043101 61 150 2.0 3.0 0.00 0.00 0.00 81 1006.1
20260509041555 61 190 1.0 3.0 0.00 0.00 0.00 81 1005.9
20260509040054 62 190 0.0 2.0 0.00 0.00 0.00 78 1005.8
20260509034554 64 190 0.0 1.0 0.00 0.00 0.00 76 1005.7
20260509033053 65 190 0.0 1.0 0.00 0.00 0.00 75 1005.5
20260509031616 65 190 0.0 2.0 0.00 0.00 0.00 74 1005.4
20260509030051 66 190 0.0 3.0 0.00 0.00 0.00 72 1005.3
20260509024552 67 190 1.0 3.0 0.00 0.00 0.00 70 1005.1
20260509023057 69 191 1.0 4.0 0.00 0.00 0.00 67 1005.0
20260509021551 71 197 1.0 4.0 0.00 0.00 0.00 64 1004.8
20260509020050 73 202 1.0 4.0 0.00 0.00 0.00 61 1004.7
20260509014550 74 207 1.0 5.0 0.00 0.00 0.00 59 1004.7
20260509013049 74 202 2.0 6.0 0.00 0.00 0.00 59 1004.6
20260509011549 74 191 3.0 6.0 0.00 0.00 0.00 59 1004.5
20260509010046 75 183 2.0 6.0 0.00 0.00 0.00 57 1004.4
20260509004551 77 173 2.0 6.0 0.00 0.00 0.00 55 1004.4
20260509003045 78 227 2.0 6.0 0.00 0.00 0.00 53 1004.3
20260509001543 79 196 2.0 10.0 0.00 0.00 0.00 51 1004.5
20260509000054 80 202 3.0 6.0 0.00 0.00 0.00 50 1004.5
20260508234542 80 189 3.0 7.0 0.00 0.00 0.00 50 1004.4
20260508233041 80 171 3.0 7.0 0.00 0.00 0.00 50 1004.4
20260508231539 80 172 2.0 7.0 0.00 0.00 0.00 50 1004.6
20260508230035 81 170 4.0 6.0 0.00 0.00 0.00 49 1004.9
20260508224533 80 256 2.0 8.0 0.00 0.00 0.00 48 1005.0
20260508223036 80 207 3.0 7.0 0.00 0.00 0.00 49 1005.1
20260508221534 80 194 3.0 7.0 0.00 0.00 0.00 48 1005.4
20260508220034 81 190 2.0 5.0 0.00 0.00 0.00 47 1005.7
20260508214524 80 171 2.0 6.0 0.00 0.00 0.00 48 1005.7
20260508213029 79 209 2.0 7.0 0.00 0.00 0.00 48 1005.9
20260508211518 79 187 3.0 7.0 0.00 0.00 0.00 49 1006.1
20260508210014 77 191 1.0 6.0 0.00 0.00 0.00 53 1006.2
20260508204512 77 184 2.0 7.0 0.00 0.00 0.00 52 1006.4
20260508203012 77 199 3.0 9.0 0.00 0.00 0.00 53 1006.6
20260508201507 76 181 3.0 8.0 0.00 0.00 0.00 55 1006.7
20260508200136 74 267 2.0 5.0 0.00 0.00 0.00 57 1006.7
20260508194502 74 172 2.0 5.0 0.00 0.00 0.00 58 1006.9
20260508193059 73 182 2.0 6.0 0.00 0.00 0.00 59 1007.1
20260508191557 72 189 2.0 8.0 0.00 0.00 0.00 60 1007.2
20260508184550 71 227 3.0 9.0 0.00 0.00 0.00 62 1007.4
20260508183046 69 191 3.0 7.0 0.00 0.00 0.00 64 1007.5
20260508181606 69 243 3.0 6.0 0.00 0.00 0.00 64 1007.6
20260508180048 68 194 4.0 7.0 0.00 0.00 0.00 66 1007.7
20260508174535 67 189 2.0 5.0 0.00 0.00 0.00 67 1007.9
20260508173031 66 189 2.0 6.0 0.00 0.00 0.00 70 1007.9
20260508171528 64 186 2.0 6.0 0.00 0.00 0.00 73 1008.0
20260508170025 64 190 2.0 4.0 0.00 0.00 0.00 74 1007.9
20260508164533 62 175 1.0 4.0 0.00 0.00 0.00 79 1007.9
20260508163016 61 185 1.0 5.0 0.00 0.00 0.00 82 1007.7